Powrót do katalogu

BREEZE-M DEB

TANK

AktywnyHEO
NORAD 28926·DEBRIS·🇷🇺 Russia

Wystrzelony Dec 29, 2005 z Baikonur Cosmodrome

Loading…

Następne Przeloty (najbliższe 24 godziny)

TLE

ŚwieżeSource: Space-Track

Epoka: Sep 13, 2026, 09:37 UTC

1 28926U 05052C   26256.40133142  .00005837  00000-0  61305-3 0  9999
2 28926  49.5244 248.1564 5017959  68.3119 336.8531  5.62461957400537

Śledź BREEZE-M DEB w czasie rzeczywistym z AllMySat

Download on the App Store